Theta_e
318 318 317 318 319 318 315 315 315 316 318 319 318 317 316 315 315 315 315 316 316 316 317 317 318 318 319 320 320 321 321 320 320 320 320 320 319 318 317 318 317 317 318 319 320 322 326 327 327 326 326 327 328 327 328 329 327 331 337 340 337 334 334 334 335 333 332 333 331 331 331 332 332 332 332 331 331 331 332 332 333 333 332 333 332 332 331 332
317 318 318 317 318 319 317 314 315 315 317 318 318 317 317 316 315 315 315 316 316 317 317 318 318 318 319 319 319 321 322 320 319 319 318 318 317 317 317 317 317 318 318 319 318 319 325 327 326 327 327 328 328 328 329 329 328 332 337 339 336 335 331 329 331 329 330 333 331 331 332 331 332 331 331 331 331 330 331 332 332 332 332 332 332 331 331 332
317 318 318 317 317 319 318 315 315 315 316 317 318 317 317 316 316 315 316 316 317 317 316 317 318 318 319 319 320 323 322 321 321 321 320 319 319 319 318 319 318 319 319 319 318 317 323 327 327 327 327 328 328 329 329 330 330 329 335 341 335 331 330 327 329 329 330 331 330 331 331 331 331 331 330 330 330 330 331 331 331 332 332 332 332 332 332 332
317 317 317 317 317 318 319 317 314 314 315 316 316 317 317 316 316 315 316 316 317 316 317 317 318 318 318 320 321 323 322 322 322 322 321 321 321 321 321 321 320 320 321 321 320 319 323 327 327 327 328 329 327 329 330 330 331 329 333 339 331 328 331 329 329 330 330 331 330 330 330 331 330 330 330 329 330 331 331 331 331 332 332 332 332 332 332 332
317 317 317 316 315 317 319 318 315 314 315 316 316 316 316 317 316 316 316 316 317 317 316 317 318 318 319 321 321 322 323 324 322 322 321 321 322 322 322 321 321 321 322 323 321 321 326 327 327 328 329 329 329 331 330 328 330 331 331 331 328 329 332 330 329 331 331 331 330 330 330 331 330 330 330 330 331 331 331 332 332 332 332 332 332 332 331 330
318 318 317 315 315 316 319 319 317 314 314 315 316 316 317 317 316 316 316 316 317 317 316 317 318 319 319 321 322 322 323 324 322 322 322 321 323 322 322 322 323 323 323 326 324 324 327 326 328 328 327 328 330 332 331 328 330 333 331 328 328 330 330 330 330 331 331 331 330 330 331 330 331 331 330 330 330 330 331 332 333 332 332 332 332 331 330 329
320 318 317 315 314 316 318 319 317 314 314 315 315 316 316 317 316 316 316 317 317 316 317 317 318 319 319 321 322 322 323 323 322 322 322 322 323 322 323 323 324 325 325 327 327 327 327 327 328 327 329 331 330 329 329 329 329 332 332 328 329 330 329 330 330 330 331 330 330 330 330 330 331 332 331 330 329 330 332 332 332 332 332 331 331 330 329 328
321 320 318 315 314 317 319 319 316 313 313 315 316 316 317 317 317 316 316 316 317 317 316 317 318 319 319 320 321 322 321 322 322 323 323 323 323 322 324 326 326 326 325 327 327 327 327 327 328 327 330 332 329 329 329 329 329 331 331 329 329 330 329 330 330 331 330 330 330 330 331 330 331 331 330 330 330 331 332 332 332 331 331 330 330 329 328 326
322 321 318 315 315 317 319 318 316 315 315 316 317 316 316 317 316 316 316 316 317 316 316 317 318 318 319 320 320 322 321 322 323 323 325 324 324 324 325 327 327 327 326 327 327 327 327 327 328 328 331 329 329 330 329 332 332 330 330 330 329 330 330 331 331 330 330 330 330 331 330 331 330 331 330 330 331 332 332 332 332 331 331 329 328 327 327 327
322 321 318 315 315 319 319 317 317 317 318 318 317 316 316 317 317 316 316 317 317 316 316 317 318 318 319 319 320 322 322 322 322 323 325 326 325 325 326 326 327 328 327 327 327 327 327 327 328 328 329 328 330 330 328 331 332 329 329 329 329 330 330 330 330 330 331 330 330 331 331 330 329 331 332 331 331 332 332 332 332 331 330 329 328 327 327 326
323 321 318 315 316 319 318 317 319 320 319 319 316 315 316 316 316 316 316 317 317 317 316 317 318 318 319 319 320 321 322 321 321 322 324 326 326 326 326 327 327 327 327 327 327 327 327 327 327 328 330 329 329 329 327 329 330 329 330 330 329 329 329 330 330 330 330 330 330 330 331 329 329 332 332 331 331 332 332 332 332 330 330 329 329 328 327 326
322 321 317 315 316 319 318 318 320 319 319 318 315 315 317 317 316 317 317 316 317 317 316 317 318 318 319 319 320 321 321 320 322 322 325 326 326 327 327 327 327 327 327 327 327 328 327 328 327 329 330 329 329 329 329 329 329 329 330 331 330 330 330 329 329 329 329 331 329 328 331 332 332 332 331 332 331 332 332 332 332 331 330 330 329 328 327 326
322 320 317 315 316 319 317 319 320 318 319 316 314 315 317 317 316 316 317 316 317 317 316 317 317 318 319 320 320 320 320 320 322 323 325 326 326 328 327 327 327 327 327 327 328 328 328 328 327 329 329 329 329 329 329 328 329 330 329 331 332 333 333 329 328 329 329 330 327 326 332 334 333 331 331 332 331 332 333 332 332 332 331 330 329 328 327 326
321 319 316 315 316 318 317 319 320 318 319 316 314 317 317 317 317 317 317 317 317 317 317 317 318 318 318 320 320 320 320 321 322 323 325 326 327 327 327 327 326 327 328 327 328 327 328 328 327 328 328 329 328 328 333 331 331 333 330 331 334 336 334 329 328 329 330 329 327 328 333 335 334 330 330 333 332 331 332 332 332 332 331 331 329 329 327 325
320 318 316 315 316 318 318 319 320 319 319 317 316 317 317 317 317 316 316 317 317 317 317 317 318 318 319 321 320 320 321 320 321 323 325 326 327 326 326 326 326 327 327 327 328 328 328 328 327 328 327 329 329 330 336 337 337 336 335 334 335 337 334 331 329 329 332 330 327 330 334 335 332 329 330 332 332 332 332 331 332 331 330 330 329 328 327 325
320 317 315 315 315 317 318 319 320 318 319 318 317 317 317 317 317 317 318 317 317 316 317 318 318 318 319 321 320 321 320 320 321 322 324 326 327 327 326 326 326 328 327 328 328 327 328 328 328 328 327 328 331 334 337 337 339 337 338 338 335 336 333 332 331 327 330 331 328 328 331 334 331 327 330 332 332 332 331 331 331 331 331 329 330 329 327 325
320 317 315 314 315 317 318 319 320 319 318 319 318 318 318 318 318 319 318 317 317 317 316 317 318 318 319 320 321 320 320 320 320 322 325 326 326 326 326 326 327 327 328 328 328 327 328 328 328 327 329 331 332 338 340 336 338 336 336 337 333 335 335 334 334 328 327 331 331 329 330 335 333 328 329 331 332 332 331 332 331 331 331 330 330 329 327 326
320 317 314 314 315 316 318 319 320 319 318 318 319 319 320 321 322 321 320 318 317 317 317 318 318 319 320 320 321 320 320 321 320 322 325 325 327 326 325 327 326 327 328 327 327 327 328 326 328 333 335 334 333 339 341 335 338 339 337 337 332 334 335 333 336 331 329 331 332 331 332 337 335 329 328 330 332 332 331 331 331 331 331 331 331 330 328 326
320 317 314 314 315 315 318 319 319 320 319 318 318 319 321 321 320 320 320 319 317 318 319 319 320 321 320 320 320 319 320 320 321 323 325 325 327 325 326 327 325 326 327 328 328 326 327 327 329 334 336 335 333 338 339 335 340 341 339 340 337 336 335 334 335 332 329 331 333 335 336 339 337 331 329 330 331 331 332 331 331 331 331 331 331 329 328 327
319 317 314 314 314 315 318 319 319 319 319 318 318 318 321 321 323 323 320 319 319 319 319 319 320 320 319 319 319 319 321 321 321 323 325 326 325 325 326 324 326 328 327 329 329 324 328 335 334 335 338 339 337 336 336 335 337 336 338 340 335 335 335 333 332 330 329 331 334 335 335 337 338 335 330 328 330 331 330 331 331 332 332 331 331 330 329 328
319 317 314 314 315 315 317 319 319 320 319 318 318 319 320 319 323 324 319 319 319 318 319 319 319 319 318 320 319 319 321 321 321 322 324 325 325 326 324 325 330 330 327 326 326 327 333 339 336 333 335 336 335 335 334 334 336 337 340 341 334 332 332 330 330 329 328 330 334 332 333 337 337 336 330 326 330 330 329 330 330 331 331 331 331 331 330 329
318 316 314 314 314 315 317 319 319 319 319 319 319 319 319 318 320 321 319 321 320 318 320 318 319 319 318 319 320 320 321 321 321 321 323 324 325 325 322 328 334 330 329 328 328 338 341 336 334 330 328 331 334 335 334 335 339 339 338 337 336 333 331 330 329 328 330 330 334 332 333 339 339 336 330 326 328 329 329 330 330 331 331 331 331 331 331 330
318 316 313 313 315 315 318 319 319 319 320 319 319 318 319 318 317 318 319 321 321 319 319 319 320 319 320 321 320 320 320 321 322 320 322 323 324 325 322 330 337 331 332 337 340 344 338 331 330 327 327 334 335 333 335 336 337 339 338 336 336 333 334 335 330 328 331 329 332 334 335 339 340 335 331 327 327 328 328 330 330 330 331 331 331 331 331 331
318 316 313 313 314 315 318 320 319 319 319 319 319 318 319 318 317 317 319 322 323 323 320 320 321 320 321 322 319 320 320 320 321 319 321 323 324 325 322 327 334 330 330 340 349 346 335 328 326 326 331 339 334 331 339 340 335 337 342 342 338 335 335 336 332 331 333 331 333 337 338 343 343 336 333 329 326 327 327 328 329 329 330 330 330 330 331 331
317 315 313 313 314 315 317 319 318 319 319 319 319 319 318 317 316 317 319 322 323 325 322 320 322 321 320 321 320 319 319 319 320 319 320 322 323 324 323 324 326 328 330 335 342 342 333 325 325 330 335 338 334 333 338 339 338 338 340 342 338 336 335 333 333 334 337 337 334 333 337 345 345 339 336 332 328 329 327 326 327 328 329 329 330 330 330 331
316 315 313 312 314 315 317 319 318 318 320 319 318 319 318 317 318 317 322 329 326 322 322 320 320 320 319 320 319 318 319 320 319 318 320 321 324 322 324 325 321 326 333 332 334 335 329 325 329 336 336 336 337 334 332 336 345 336 330 337 336 335 336 333 334 337 338 336 330 332 339 341 342 342 338 332 330 332 329 326 326 327 328 328 328 330 330 331
316 314 313 312 313 314 316 316 316 318 320 319 319 319 317 317 317 315 324 332 325 319 321 322 318 318 318 317 318 318 318 320 319 319 320 321 323 321 324 328 322 323 327 328 330 327 327 329 331 336 337 336 336 335 331 336 344 332 326 335 336 336 337 332 334 339 337 334 331 337 339 334 339 342 334 329 331 334 332 330 327 325 327 328 328 329 329 331
315 314 313 313 312 313 315 314 315 317 318 318 319 319 318 317 317 321 328 326 318 319 320 319 319 318 318 317 318 319 317 319 319 319 320 321 322 322 323 325 324 325 322 326 334 326 325 331 332 336 336 332 336 337 331 331 334 328 327 334 335 336 338 334 337 341 337 333 334 339 335 331 341 343 334 330 333 336 336 334 330 325 327 328 328 329 330 330
314 313 312 312 313 314 314 314 316 316 316 318 318 318 317 315 316 326 331 323 316 320 320 316 320 318 317 318 316 317 317 317 319 319 320 321 322 322 322 321 322 325 320 324 339 331 323 326 329 335 335 331 335 333 329 332 330 326 327 331 331 332 335 336 339 340 337 334 336 339 334 331 340 345 339 334 336 341 340 335 328 324 326 328 328 329 330 330
313 313 312 312 313 314 315 316 317 316 316 317 318 319 315 317 329 330 324 320 317 319 319 317 319 317 317 319 317 317 316 316 318 319 318 320 322 321 321 320 320 327 327 326 333 329 322 323 325 329 330 327 328 324 324 328 325 326 335 337 332 334 339 340 341 338 335 337 338 337 334 330 335 345 344 338 340 344 341 338 332 325 325 328 328 329 330 330
312 312 312 312 313 313 315 316 317 317 316 318 319 318 314 321 338 335 320 318 320 320 321 320 318 317 318 318 319 318 316 316 317 318 320 320 321 320 320 321 322 333 344 335 327 326 325 325 325 324 323 324 328 327 323 324 325 331 344 341 331 333 337 338 341 339 333 336 338 336 334 329 332 344 347 339 338 338 335 339 339 329 325 327 328 329 329 329
312 312 312 312 312 314 315 315 318 317 316 320 318 318 323 322 325 328 322 319 322 323 323 321 319 320 319 317 319 319 317 316 316 317 322 321 321 323 322 327 329 329 335 333 327 328 330 329 326 323 322 325 336 335 325 327 332 335 342 342 335 336 335 333 337 337 333 333 333 333 333 330 334 341 341 337 336 334 328 330 332 327 324 327 328 329 329 330
311 312 313 313 313 314 315 314 318 318 317 321 316 319 334 329 320 324 327 323 322 323 322 321 322 321 318 316 318 319 316 317 317 317 319 319 322 324 322 327 328 324 327 327 324 328 332 332 328 325 325 325 332 339 331 328 333 335 339 337 335 336 332 332 335 333 330 331 330 329 330 334 337 334 334 338 332 327 325 323 325 326 326 327 328 328 330 330
312 313 314 314 313 314 315 315 317 319 319 319 318 321 325 323 319 324 332 331 325 324 322 321 321 320 318 318 318 317 318 318 318 317 319 321 322 324 324 322 321 330 337 327 322 328 328 328 330 327 326 325 327 337 338 334 334 334 336 333 330 333 331 329 333 332 328 332 332 328 328 334 335 330 332 333 325 322 324 324 324 325 326 327 327 329 330 330
313 313 314 315 314 313 314 315 318 320 317 317 326 329 323 322 323 326 333 334 327 325 323 320 322 324 325 326 324 319 317 319 319 318 319 321 323 328 331 324 320 330 334 324 322 326 322 325 332 325 322 325 325 327 331 335 334 328 328 330 327 330 336 332 330 330 328 332 336 330 328 333 333 330 328 326 326 326 324 323 324 324 325 327 327 329 329 330
313 314 315 316 315 314 315 317 319 319 317 321 328 328 328 330 326 324 327 325 321 323 325 324 326 328 326 328 331 326 318 317 318 318 319 320 322 326 329 327 323 324 328 327 328 327 321 324 330 324 321 324 325 326 326 325 329 328 326 330 324 325 339 335 324 327 328 329 331 329 331 336 331 328 332 334 337 336 328 324 324 323 326 327 327 329 330 330
313 315 317 317 316 317 319 319 319 317 317 322 324 325 332 332 323 324 325 321 321 323 326 325 322 322 322 324 331 331 322 319 318 318 320 320 319 322 324 324 321 320 325 328 328 328 327 329 329 326 324 323 321 325 325 320 324 330 328 329 327 323 334 335 328 333 334 330 330 329 331 337 331 327 337 342 342 343 338 330 324 325 326 327 328 329 329 330
314 316 318 318 319 319 320 320 318 318 319 323 328 330 331 325 318 321 323 320 322 323 325 326 319 319 324 323 325 327 323 322 321 320 320 318 318 321 325 325 321 319 320 320 322 326 327 328 328 326 323 323 324 324 326 324 321 324 324 324 325 323 328 333 330 331 330 328 332 333 331 331 332 337 341 338 341 346 342 334 331 330 326 326 328 328 329 331
313 315 318 320 320 319 320 320 318 318 321 326 334 331 324 323 321 320 321 321 322 321 323 326 320 319 324 323 323 324 322 321 321 321 320 316 317 321 324 325 320 317 316 317 323 329 330 328 325 325 322 322 328 327 329 332 324 322 326 326 328 331 330 329 327 326 328 328 330 333 335 333 334 345 347 335 340 348 344 343 339 329 325 327 328 328 329 330
312 313 318 320 320 320 320 320 318 321 324 325 332 330 321 323 324 319 322 322 321 321 323 324 321 320 324 323 321 321 322 323 321 322 320 316 319 324 324 323 321 318 316 316 323 329 330 327 324 328 326 322 327 330 331 336 331 327 332 330 330 330 326 326 327 326 328 332 332 329 334 339 334 339 343 335 340 345 343 347 341 326 325 328 326 328 329 329
312 314 318 319 320 320 319 320 318 321 325 322 325 327 323 323 323 320 322 322 322 323 321 324 324 323 325 323 320 320 324 327 324 323 321 319 323 326 323 322 320 320 319 319 326 327 325 329 331 329 327 328 334 331 326 330 334 336 338 337 336 333 328 327 328 328 328 330 332 328 328 337 336 333 338 337 337 337 331 332 332 326 326 327 327 328 329 328
312 316 319 318 321 319 319 322 317 316 325 325 321 322 322 321 322 322 322 321 323 321 319 321 323 323 326 324 320 321 324 325 323 322 322 320 323 324 323 323 319 319 324 325 325 322 324 338 338 328 330 335 331 323 317 320 329 332 329 331 333 335 336 331 327 331 329 324 328 328 325 336 340 333 333 333 328 326 323 323 325 325 326 327 327 328 327 328
312 315 316 316 320 318 318 325 320 318 326 325 318 319 320 320 322 322 323 323 322 320 320 321 319 321 324 320 319 321 321 321 321 320 322 321 323 323 322 324 321 319 324 326 324 323 326 334 331 328 340 342 332 327 320 319 326 325 322 325 326 329 336 336 333 333 329 326 330 328 326 340 345 330 322 322 322 323 323 324 325 325 327 327 326 327 327 327
312 313 314 314 316 317 320 325 325 325 329 325 321 322 320 319 321 322 325 326 322 320 323 325 320 319 319 317 319 320 318 319 319 318 320 322 323 324 323 325 327 328 328 325 325 324 322 326 327 327 336 336 332 337 332 326 329 328 326 326 325 330 333 332 333 332 326 330 333 328 329 342 344 331 322 322 326 327 324 324 326 325 326 327 326 327 327 326
312 312 313 312 314 316 319 322 323 328 331 326 324 324 321 320 321 321 324 325 323 319 321 323 320 319 320 319 321 323 320 319 320 320 324 327 329 326 323 324 326 331 335 326 321 325 326 333 335 331 331 329 327 335 336 328 326 327 328 325 323 330 332 327 329 329 326 328 328 328 333 337 335 332 328 327 331 331 326 324 326 326 326 326 326 326 327 326
313 315 316 315 314 315 316 318 319 324 327 323 323 324 323 324 324 322 323 324 322 320 319 319 318 320 324 324 326 327 323 322 324 327 331 336 337 329 323 326 324 326 336 326 318 329 336 335 339 342 339 335 335 339 335 326 323 323 325 326 323 327 331 330 329 331 332 331 331 337 335 330 331 334 331 329 332 333 329 323 323 327 326 326 326 325 326 326
314 318 320 318 316 316 317 317 315 317 320 319 320 324 325 327 326 323 322 322 322 321 319 318 320 321 323 325 328 326 324 328 331 332 332 333 336 330 321 325 325 323 330 324 317 336 346 330 329 338 338 334 337 336 326 323 325 325 324 325 326 329 332 330 328 332 333 327 333 345 338 329 331 334 330 330 331 332 328 321 321 326 325 325 326 325 326 326
314 316 317 317 319 320 320 319 316 316 317 317 319 322 323 324 324 323 322 322 323 322 319 321 326 327 324 324 327 326 326 330 331 332 334 332 333 337 329 326 326 322 325 325 320 337 352 332 322 328 329 329 333 330 324 323 324 325 326 327 327 330 329 327 330 336 332 324 332 344 338 331 332 333 332 329 326 326 324 321 322 324 324 326 326 325 326 325
313 314 314 315 319 319 319 319 317 318 322 321 323 324 322 322 324 324 322 323 327 326 321 323 330 330 327 326 331 333 330 328 328 330 335 332 330 337 336 331 328 322 325 331 325 327 335 330 326 330 327 327 332 329 326 327 324 324 329 330 330 331 328 326 331 334 329 327 334 336 333 335 334 331 332 327 321 321 321 322 325 324 324 326 326 326 326 325
312 313 313 314 316 315 316 317 318 322 326 323 325 326 323 323 328 326 322 323 328 328 324 326 331 330 328 333 340 340 334 334 338 335 333 332 330 333 335 333 330 326 330 336 330 324 324 324 329 335 328 326 334 332 329 331 326 324 328 333 332 328 326 325 328 331 329 330 334 330 329 338 335 325 323 322 321 324 324 323 326 325 325 326 326 326 327 326
313 314 313 315 317 317 317 317 317 322 324 322 326 329 326 326 328 325 323 322 323 327 326 327 332 330 331 335 338 334 328 332 337 332 328 331 330 329 331 328 326 329 335 334 330 331 332 327 329 335 329 327 332 333 335 337 331 326 332 340 337 331 327 325 326 331 330 328 330 327 326 339 338 323 319 321 320 323 325 325 326 326 326 327 327 327 327 326
312 314 314 315 317 318 319 318 316 320 322 322 326 327 324 324 321 319 324 323 320 324 326 324 328 332 335 335 333 330 325 326 328 326 325 327 326 325 326 324 323 325 331 332 329 332 338 336 332 330 327 330 333 332 335 336 331 332 340 342 338 332 328 327 328 332 329 325 328 328 328 336 334 322 324 328 324 322 325 326 327 327 326 326 327 328 327 327
Wind_Speed
24 23 22 21 19 17 15 13 13 13 14 14 13 12 13 13 13 14 14 14 12 11 9 8 7 7 6 6 6 5 4 2 0 1 1 0 1 2 2 2 2 1 1 2 3 4 4 4 4 1 4 3 5 6 6 7 7 5 4 4 3 2 1 2 4 4 4 3 2 3 7 9 6 6 9 8 10 13 13 14 13 11 12 13 11 9 9 8
24 23 21 21 19 17 15 13 13 13 13 13 13 12 12 12 12 13 14 12 11 10 9 9 8 8 8 8 7 5 3 3 3 4 4 2 1 3 3 3 2 1 1 1 0 3 4 5 6 2 5 7 7 6 6 7 8 5 3 4 2 3 1 2 7 5 4 7 6 6 9 9 6 5 7 6 8 12 12 11 12 13 12 12 10 9 8 7
24 23 21 20 19 17 15 13 12 12 12 12 13 12 11 11 11 12 12 11 11 10 9 9 8 8 8 9 7 5 4 4 5 6 4 2 2 3 3 2 3 2 1 1 1 2 3 4 7 8 12 12 9 10 9 8 7 4 3 4 0 3 2 4 9 8 8 13 9 7 9 10 7 7 8 8 8 9 6 5 9 12 11 10 10 8 8 7
24 24 22 21 19 17 15 13 12 11 11 11 12 11 10 9 9 11 11 11 10 9 9 8 8 8 9 8 6 5 5 5 5 6 3 3 4 4 4 4 4 4 3 2 0 3 5 4 6 12 15 11 10 12 9 7 5 3 3 3 1 4 4 4 11 14 14 14 11 10 12 11 10 11 10 10 9 5 3 5 8 11 11 10 9 8 7 6
24 24 23 22 20 17 15 14 12 11 10 11 11 10 8 8 8 9 10 10 10 8 8 8 8 9 10 8 4 3 3 4 3 3 2 2 4 4 4 4 4 4 2 3 2 7 8 8 10 13 12 7 7 9 7 7 8 5 3 3 4 6 4 5 14 16 15 15 14 12 10 9 11 12 11 11 7 2 4 9 11 11 10 9 9 8 6 5
25 25 25 23 21 18 16 14 12 10 9 10 10 9 7 6 7 8 9 9 9 8 8 8 8 9 10 8 5 3 2 3 1 2 2 2 3 2 4 4 4 3 2 4 5 8 8 10 14 11 8 5 6 5 5 8 8 5 3 6 8 10 7 10 15 14 15 16 11 9 9 11 13 11 11 14 8 7 10 10 11 11 10 8 7 6 5 4
25 25 25 24 21 17 15 14 12 10 8 9 9 7 6 5 5 7 8 9 9 9 8 7 8 8 8 7 4 4 4 3 2 2 1 2 1 1 4 4 3 2 4 5 5 8 10 15 19 13 7 5 5 5 9 14 13 8 4 6 11 14 12 12 15 13 15 16 12 13 14 11 12 8 9 12 9 11 12 10 10 10 9 7 6 5 3 3
25 26 26 25 21 17 15 13 11 9 7 8 9 6 5 4 4 6 8 8 8 8 7 7 7 7 7 6 4 3 3 2 2 2 1 1 2 1 3 3 3 3 4 5 6 9 14 18 19 13 6 4 5 6 9 13 11 7 5 7 10 14 14 15 16 16 17 17 17 18 14 11 13 11 8 8 9 11 11 10 9 8 8 6 5 4 3 4
26 26 26 25 21 16 14 13 11 8 7 8 9 6 4 3 3 5 8 8 7 7 6 6 6 7 6 7 5 2 2 2 2 2 3 3 2 4 4 4 5 4 4 7 6 5 9 12 12 10 8 7 8 6 5 5 4 3 8 11 12 13 15 17 17 17 18 17 19 17 10 11 13 10 7 4 6 9 10 10 8 7 7 6 4 3 3 4
26 26 26 25 21 16 14 12 10 9 8 9 9 6 4 2 2 5 7 7 7 6 6 5 5 6 6 7 6 2 2 3 3 1 3 5 3 3 4 4 5 4 4 7 5 1 6 12 15 18 15 9 7 6 6 5 7 11 16 16 14 14 12 15 16 15 16 14 19 15 5 6 5 3 3 2 5 6 8 9 7 7 6 5 4 3 2 3
26 26 26 25 21 15 13 12 10 10 10 10 8 4 5 2 2 5 7 7 6 5 6 5 5 7 6 7 5 3 3 5 4 1 2 4 3 2 2 3 4 4 6 7 5 5 11 18 21 16 10 8 9 10 11 12 17 18 19 15 12 14 12 12 13 14 12 8 15 16 5 4 5 3 5 6 7 5 8 9 8 7 5 5 3 2 1 2
25 25 25 25 21 15 12 11 11 12 11 11 5 4 5 0 3 6 6 6 5 5 6 5 6 8 8 7 4 3 4 6 2 0 3 4 3 3 3 4 5 6 7 9 10 11 13 15 14 10 9 12 9 8 10 16 20 17 14 9 6 9 8 6 6 8 8 6 12 11 5 4 5 2 7 8 7 6 7 8 8 8 6 5 4 3 2 1
25 25 25 25 20 15 12 11 12 12 12 10 3 6 4 2 4 5 6 6 5 6 6 7 7 8 10 8 3 2 6 5 0 2 2 4 4 4 4 5 8 8 8 11 14 10 8 7 9 16 17 11 6 8 13 15 16 12 7 5 4 6 3 2 4 6 7 9 9 4 2 2 5 4 6 7 7 7 8 8 9 8 7 6 6 5 3 2
26 24 24 24 21 15 12 12 12 13 13 11 5 5 3 2 4 5 6 7 6 6 6 7 8 9 10 7 3 4 6 4 0 2 2 4 6 6 6 6 7 9 9 11 11 8 8 9 14 19 13 9 12 15 11 7 7 5 3 3 3 4 1 2 3 5 5 7 6 5 2 4 6 6 6 8 8 8 9 8 9 10 9 8 7 6 5 3
25 24 23 23 20 15 12 12 12 13 13 11 4 2 1 2 4 6 7 7 6 7 7 8 8 10 10 5 4 5 5 5 3 1 2 3 5 6 7 7 8 10 10 10 11 12 13 13 15 14 10 14 17 11 4 3 3 3 2 2 3 3 1 4 3 7 3 5 6 4 2 3 5 8 9 9 8 8 9 9 10 11 10 9 8 7 7 5
25 24 23 22 20 16 13 12 12 13 13 10 5 1 2 3 5 6 8 8 7 7 7 8 8 10 9 3 4 6 10 11 6 3 3 2 4 7 8 7 9 11 11 12 13 13 12 11 14 13 10 11 9 5 4 3 3 3 3 1 1 3 1 2 3 8 3 3 2 2 2 2 4 9 12 11 10 10 10 11 11 11 11 10 9 9 8 7
25 24 22 21 20 16 12 11 12 13 13 10 6 3 2 3 5 5 6 7 6 7 8 8 10 10 5 1 1 6 14 16 6 6 5 3 4 7 7 6 10 11 12 15 12 9 8 8 10 8 6 5 2 4 5 3 3 3 3 2 1 2 2 1 2 6 4 4 2 2 2 4 4 7 14 14 12 12 11 12 12 11 12 12 11 10 10 9
24 24 22 20 19 16 12 11 12 13 13 10 6 5 3 3 4 3 4 6 8 9 8 7 8 6 2 1 4 9 15 15 4 7 6 4 6 6 3 4 9 11 12 11 6 4 6 5 5 2 3 3 2 4 3 1 3 2 1 2 1 1 2 2 3 4 6 3 2 2 1 5 6 4 12 15 14 14 13 13 12 12 13 13 13 12 11 11
23 23 21 18 17 15 11 11 12 14 15 11 6 4 3 2 2 0 3 4 5 5 3 5 6 1 4 8 9 12 15 13 3 8 7 5 7 6 2 3 4 5 7 6 2 3 5 4 5 3 1 1 3 3 4 5 6 6 4 4 4 2 2 4 4 4 7 4 2 4 2 4 5 5 9 13 15 15 15 13 13 13 13 14 14 14 13 12
22 22 21 17 16 15 10 10 12 15 17 15 9 2 1 4 2 2 5 2 1 1 3 6 7 6 11 13 11 13 13 9 3 7 8 6 8 7 3 2 1 1 2 1 1 2 3 4 2 2 4 5 5 4 5 4 6 7 5 4 4 2 2 3 3 4 7 4 2 4 3 4 5 5 7 12 12 12 14 14 15 16 15 15 16 16 15 13
22 22 21 16 14 14 10 8 10 13 15 15 10 6 9 9 4 5 10 3 1 4 6 6 8 12 14 13 12 15 12 5 3 6 8 8 8 5 2 1 3 3 3 2 0 2 4 4 1 4 5 4 2 3 4 4 6 5 5 4 2 1 2 3 1 3 5 2 3 2 3 5 6 5 6 9 9 11 17 16 17 19 17 16 17 17 17 14
21 21 21 16 13 13 9 5 8 9 10 11 11 14 15 12 6 5 8 5 6 7 7 8 10 13 15 13 15 15 10 4 5 8 10 10 8 6 2 3 4 1 3 3 2 4 4 1 4 3 3 5 4 5 6 5 5 4 3 4 1 1 2 3 2 2 3 1 3 2 3 6 6 5 6 10 11 14 19 20 20 19 17 18 18 18 18 16
21 20 21 17 12 12 7 4 5 6 7 9 13 16 13 10 7 6 4 5 9 7 6 8 9 12 13 12 12 11 7 4 5 9 11 12 9 5 3 3 4 1 3 3 3 2 3 3 4 3 6 7 5 4 6 6 4 3 3 4 1 2 1 1 2 1 2 1 1 2 1 5 5 3 5 11 16 15 16 18 19 19 19 19 18 19 19 18
20 20 20 17 12 10 6 2 4 4 5 9 12 13 10 8 6 6 3 2 6 6 5 6 7 10 11 10 9 8 6 5 6 6 9 13 10 3 2 3 4 2 2 2 5 5 1 4 4 6 6 6 5 3 5 5 3 1 3 4 2 3 3 3 2 1 3 3 1 4 3 5 3 3 5 6 10 12 13 14 16 19 20 20 19 19 20 19
20 19 19 18 13 10 5 1 4 4 3 6 9 9 8 6 6 6 4 1 3 5 4 3 5 8 8 8 8 6 4 5 8 8 9 13 11 3 1 2 3 2 2 3 5 4 1 2 5 5 5 5 5 1 2 4 2 3 2 4 5 5 4 3 4 4 4 4 2 4 3 5 4 3 6 4 2 7 9 11 15 18 19 19 21 21 21 19
19 18 18 17 14 11 4 1 5 5 2 4 7 7 6 5 5 4 3 3 1 4 3 1 2 3 4 4 6 4 2 3 7 8 9 12 12 5 1 1 2 2 4 4 3 2 1 1 3 4 5 5 4 1 3 5 4 2 1 4 5 6 7 7 6 4 2 2 3 3 4 3 6 4 6 4 4 6 5 7 13 17 18 20 22 22 21 21
17 17 17 16 15 12 7 5 8 5 2 4 6 4 4 4 4 4 3 5 1 2 2 2 0 1 2 2 3 3 1 4 5 3 6 9 9 6 2 2 2 1 4 3 2 1 2 3 5 5 5 4 4 2 3 5 5 2 1 4 6 7 7 7 6 4 1 1 3 4 4 1 4 5 5 4 4 6 7 7 10 14 18 20 22 22 22 21
16 16 16 14 13 12 9 9 9 5 4 5 5 4 3 3 3 2 3 4 1 2 1 2 2 3 4 2 4 4 2 2 1 2 5 8 8 5 1 3 3 3 2 5 1 4 2 2 2 4 4 1 1 4 5 6 4 2 1 5 6 6 6 5 5 3 1 2 3 5 2 1 4 6 5 3 1 6 8 9 9 13 19 20 21 22 22 21
15 15 15 13 11 8 8 9 8 7 6 6 5 3 2 0 1 3 5 2 2 2 1 1 2 4 4 1 3 4 3 2 1 2 5 6 8 5 1 1 5 3 3 5 3 4 1 1 5 7 3 2 4 3 4 5 3 2 4 7 6 6 6 4 4 3 3 4 2 5 1 2 4 5 4 3 1 5 8 8 8 13 18 20 22 22 22 21
14 14 14 13 9 6 5 6 7 8 7 6 5 2 2 2 3 5 3 1 1 2 2 2 3 3 1 1 2 3 2 3 2 2 3 3 5 6 1 1 4 5 4 4 3 2 3 1 4 4 2 4 3 2 2 3 4 5 4 6 5 5 5 3 3 4 3 3 5 5 2 3 2 5 3 2 3 5 6 6 6 9 15 20 21 22 23 22
13 13 14 13 9 7 5 4 6 8 6 5 5 2 4 2 4 6 1 2 1 2 4 3 3 2 2 1 2 2 1 3 3 1 2 1 1 2 2 1 2 4 4 4 2 4 6 2 1 1 1 4 5 5 4 5 5 5 4 4 3 3 4 4 4 4 3 2 5 4 1 4 1 5 4 5 6 6 5 6 6 7 14 20 22 23 23 22
12 12 12 11 10 8 6 6 6 7 6 5 3 3 5 2 2 2 1 2 1 2 2 1 2 3 2 1 2 2 0 2 2 2 3 1 1 2 2 3 2 3 4 2 1 4 4 1 3 4 2 4 5 4 4 6 6 5 4 4 3 3 3 3 3 2 1 2 2 1 1 2 3 7 7 7 8 7 8 10 11 11 15 20 22 24 24 23
11 11 10 8 8 7 5 6 6 6 6 5 1 2 5 4 1 3 2 2 1 2 1 1 3 2 1 1 2 3 1 2 3 0 2 1 0 2 2 2 5 3 1 2 1 3 3 5 5 3 1 2 5 4 0 2 2 3 3 3 3 2 3 3 3 2 2 3 2 2 1 1 4 6 6 8 8 8 11 15 16 16 16 18 21 23 24 24
10 11 9 6 6 7 6 5 4 4 5 3 1 3 5 2 3 2 1 3 2 2 2 1 3 3 2 1 2 3 1 2 2 1 1 2 1 2 3 2 2 4 3 1 0 1 1 4 3 1 1 1 3 4 4 4 2 2 4 4 3 3 2 1 2 1 2 3 3 4 1 1 2 3 4 7 8 9 11 14 15 16 16 16 17 20 23 24
9 9 10 8 5 6 6 4 3 4 4 1 3 5 4 3 3 2 2 3 1 2 3 2 2 4 4 3 3 1 1 2 2 2 2 1 2 3 2 3 2 3 5 2 2 1 2 3 6 3 1 3 2 2 4 6 3 1 2 4 1 2 4 2 2 3 2 2 3 2 2 3 4 5 5 5 7 6 7 7 7 11 14 14 16 20 22 24
8 7 7 6 3 1 1 2 2 4 4 1 5 4 3 4 2 3 2 1 1 2 4 4 4 5 4 4 4 4 1 1 2 2 1 1 2 3 3 4 5 5 5 4 3 1 2 3 6 3 2 2 4 4 3 3 1 1 1 1 2 2 6 4 0 0 3 2 2 1 3 5 3 4 6 5 5 5 7 5 2 8 11 13 17 20 22 24
7 4 3 3 3 4 3 2 3 3 3 3 5 2 4 3 3 4 1 1 2 1 3 3 2 2 1 2 3 5 2 1 2 1 1 3 2 4 3 3 5 7 7 5 3 3 4 1 6 2 2 2 4 9 6 4 3 1 1 3 2 2 4 4 1 3 4 2 3 2 3 5 3 2 5 7 6 6 5 4 1 5 10 14 17 20 22 24
6 2 2 4 5 5 4 3 4 3 1 4 2 3 3 1 2 3 2 2 1 1 4 2 0 1 2 1 2 5 2 2 3 1 1 2 2 3 2 3 3 5 6 4 2 0 4 0 7 2 1 3 2 7 5 5 5 2 3 3 2 2 1 2 2 2 3 2 4 4 4 3 2 2 5 6 5 6 5 2 1 5 11 16 18 20 22 23
6 2 1 2 3 3 3 3 4 3 3 3 1 2 1 2 4 4 3 2 1 2 2 2 1 1 2 3 1 3 2 1 1 1 2 1 2 2 0 2 1 0 3 5 3 1 3 3 3 3 1 2 3 2 1 3 5 5 3 2 2 2 3 0 1 1 1 1 2 4 4 3 4 5 4 6 7 6 5 4 4 8 14 17 19 20 23 24
5 2 1 4 4 1 2 3 3 4 3 2 4 2 1 3 4 4 4 3 1 1 1 3 2 1 2 2 1 2 1 1 2 1 1 1 2 4 1 1 2 1 2 4 4 2 3 3 2 4 3 1 1 1 4 4 2 2 2 1 2 1 2 0 1 1 2 2 1 1 3 5 6 4 6 8 8 6 6 6 6 11 16 18 19 21 23 25
3 2 2 6 5 0 2 2 3 3 3 1 2 2 1 2 3 6 6 3 4 4 3 4 3 2 2 1 1 2 1 2 2 1 1 1 0 1 2 3 3 3 2 5 4 2 1 3 3 1 2 2 4 5 5 6 5 5 3 3 3 2 2 2 2 3 1 2 2 2 2 7 6 3 5 7 6 6 8 7 8 12 16 17 19 21 23 25
1 0 3 8 7 2 1 1 2 2 2 2 2 2 3 4 3 5 5 2 3 3 2 3 3 2 2 2 1 2 1 2 2 2 1 1 2 4 5 10 6 3 3 3 1 2 3 4 3 1 2 5 7 5 2 4 4 5 2 2 3 3 4 4 1 3 1 2 1 3 0 6 7 3 4 6 6 8 9 10 12 14 15 16 18 20 21 23
4 3 4 7 8 5 0 2 2 2 1 2 2 3 4 3 2 3 4 2 2 2 0 1 1 1 1 2 1 1 1 2 1 1 1 2 3 4 8 13 4 2 4 2 2 2 3 4 4 1 4 4 5 4 3 3 5 5 2 1 3 1 3 5 4 3 2 2 1 2 1 6 6 2 2 6 8 9 10 11 14 16 15 14 16 19 20 22
5 6 5 6 8 6 3 1 1 2 3 3 3 3 4 3 3 3 3 2 2 0 1 0 2 2 1 1 2 1 0 2 1 2 1 1 2 2 10 15 5 2 3 2 3 3 2 1 3 3 4 5 6 6 6 5 3 2 2 1 2 3 4 3 2 2 1 3 4 3 3 7 6 5 4 4 5 7 9 10 13 16 16 14 15 18 20 21
4 6 6 5 8 8 4 3 4 2 2 2 2 3 3 3 5 6 6 4 3 2 1 1 1 3 1 2 3 2 2 2 2 1 0 1 3 3 10 16 11 6 3 2 3 4 3 2 4 5 3 2 1 2 3 2 1 0 1 2 1 4 5 2 1 3 1 3 3 4 5 6 8 9 9 6 5 6 8 8 11 15 16 15 15 17 20 22
2 3 2 1 4 7 5 3 4 3 2 1 1 3 1 1 4 5 5 4 4 4 2 2 1 2 2 3 4 3 5 3 1 2 1 2 3 4 9 13 14 12 6 4 4 4 4 3 3 6 6 7 6 6 6 3 1 1 2 2 2 2 4 4 3 1 2 2 1 5 6 4 10 11 11 10 7 7 7 8 11 14 16 16 16 17 20 22
2 2 2 1 2 3 2 3 3 2 2 3 1 2 2 3 3 3 2 3 3 2 1 1 1 2 1 3 4 1 3 4 4 2 1 3 3 5 8 8 12 16 9 4 5 4 5 3 1 5 4 6 7 5 1 2 2 2 2 2 2 1 3 5 2 4 4 3 4 7 5 2 8 9 10 11 8 7 7 7 10 13 14 15 16 16 19 21
4 2 3 3 1 2 2 2 3 3 3 3 2 1 1 1 1 1 2 2 3 2 1 2 4 1 4 5 5 3 1 3 4 2 2 3 3 4 6 3 7 16 12 6 6 5 6 2 2 3 2 4 3 1 1 1 1 2 3 4 2 2 5 4 5 6 6 5 6 6 5 5 7 9 10 10 8 8 10 10 11 12 12 12 14 16 19 22
7 4 3 5 4 3 4 2 1 3 3 3 2 1 2 2 3 4 2 1 4 3 2 1 4 5 3 5 6 4 3 3 0 3 2 1 2 2 4 2 4 12 13 6 5 4 4 1 1 1 1 4 4 4 2 2 2 2 3 6 5 4 5 5 5 5 6 6 7 5 4 7 8 8 10 11 12 12 12 12 11 9 8 10 14 17 19 22
7 5 4 5 4 2 3 2 3 3 2 2 2 3 3 4 4 4 2 3 1 3 2 3 4 4 2 4 6 4 6 8 5 4 5 2 0 1 0 1 2 7 10 4 3 4 3 1 1 3 2 4 6 5 5 4 1 4 6 6 5 4 3 3 3 2 3 5 5 1 2 7 7 7 9 14 14 11 10 10 9 7 6 10 14 17 19 21
9 6 4 3 2 2 3 3 4 4 1 1 4 3 2 5 5 3 2 3 5 3 2 5 6 1 2 4 5 5 7 8 7 7 8 5 1 2 1 2 3 3 7 3 2 4 4 2 1 4 3 4 4 4 5 4 2 2 7 6 3 2 1 3 3 3 4 3 4 4 3 6 6 4 8 14 13 10 10 10 9 8 6 9 13 17 19 21
14 9 6 4 1 2 4 3 4 4 2 3 4 3 3 4 4 2 1 1 2 1 1 6 8 4 3 3 5 6 7 8 6 4 5 3 2 3 3 3 4 2 1 1 2 2 3 3 1 3 2 4 4 4 3 4 5 4 6 4 5 3 2 3 4 4 5 3 1 2 5 7 5 5 7 9 10 11 11 9 9 9 7 8 12 15 17 19
Wind_Direction
11 10 10 10 8 5 3 1 2 1 6 9 4 1 1 2 6 12 15 22 28 31 35 39 40 35 25 24 16 5 356 352 8 305 325 9 210 173 132 134 137 129 87 72 65 42 16 25 36 193 190 130 80 66 75 76 68 71 80 81 90 148 164 182 178 168 134 122 119 91 104 112 102 87 95 91 81 84 82 78 85 89 86 87 92 101 94 81
9 8 9 9 7 4 0 357 355 356 1 3 3 360 358 360 4 9 15 22 26 28 32 33 34 28 24 24 20 24 26 39 51 39 38 45 120 124 120 135 136 142 141 180 288 39 42 52 50 102 133 89 64 69 83 62 54 67 101 87 121 202 299 122 147 139 116 128 126 104 106 104 102 103 99 92 69 78 81 74 87 86 80 88 91 92 92 94
7 7 7 8 7 4 359 354 350 350 353 357 0 356 354 357 1 9 15 20 22 26 28 28 30 22 23 19 22 40 39 61 61 42 52 80 90 106 107 96 81 73 60 294 261 27 60 85 67 83 94 79 61 76 77 52 49 50 82 83 181 193 59 76 123 121 127 131 117 95 94 84 88 101 100 105 82 67 72 75 87 85 86 95 95 98 105 110
6 7 7 8 7 4 360 354 346 342 344 350 355 353 348 350 360 8 13 19 21 24 24 24 24 18 18 14 31 55 53 72 66 41 62 108 99 106 93 77 68 53 28 13 67 103 85 97 98 85 83 70 54 70 59 39 64 47 72 107 180 138 80 75 119 119 123 121 106 98 93 81 88 97 104 111 92 56 52 91 102 100 103 106 109 115 114 109
6 7 8 8 6 4 0 355 345 337 335 342 349 348 340 342 359 6 13 20 18 21 22 20 16 15 16 11 23 48 58 70 52 40 74 109 101 103 81 68 62 52 42 34 102 127 99 97 110 86 72 55 42 59 42 51 90 77 56 94 113 120 96 107 120 120 120 111 101 96 90 99 97 83 90 101 94 92 95 101 111 112 114 115 117 117 110 101
6 7 8 8 5 2 360 356 347 336 330 336 343 340 329 335 354 4 12 17 16 19 20 17 14 17 17 14 12 359 52 96 115 82 103 109 100 82 53 47 54 63 100 88 108 130 117 106 102 82 67 58 41 57 58 68 93 95 57 58 89 113 112 118 117 117 119 106 93 93 101 109 97 75 80 90 94 122 119 114 117 118 122 122 119 116 104 91
6 6 7 8 6 3 359 356 350 340 331 331 334 329 314 323 349 3 11 16 18 18 20 16 11 18 16 10 11 9 44 87 118 93 105 132 151 25 43 52 65 98 125 121 125 130 124 109 99 89 81 73 54 66 77 79 87 94 84 61 88 105 110 120 115 113 113 100 98 109 107 97 93 93 84 88 106 123 121 121 122 122 124 124 120 116 100 71
5 5 6 8 7 4 0 357 354 348 338 329 325 314 290 306 343 359 7 14 20 18 19 14 8 17 11 1 358 349 18 39 72 70 77 146 180 98 81 97 99 106 125 137 140 131 120 108 104 96 73 74 91 91 85 80 71 68 101 96 92 99 107 118 113 112 108 104 112 107 94 85 95 104 87 89 118 121 122 125 126 126 125 130 127 111 82 52
4 3 5 8 8 6 1 359 2 359 343 324 315 297 261 283 335 359 7 12 17 15 12 9 6 8 3 3 356 341 21 33 40 45 72 73 82 109 117 115 91 88 126 151 150 137 123 112 113 113 107 104 98 93 80 75 46 57 109 104 97 98 106 115 110 110 110 112 117 102 86 96 101 99 79 93 126 122 130 135 138 136 135 140 126 104 70 39
2 2 3 7 9 7 4 5 9 2 341 320 311 279 231 253 336 1 7 9 9 5 3 3 356 355 360 359 359 57 55 7 8 18 82 69 54 104 122 102 70 60 117 159 169 147 130 122 118 117 113 99 83 72 56 85 107 102 101 93 94 98 100 113 110 111 114 116 119 112 94 93 98 111 101 146 135 130 144 147 153 148 149 151 134 115 72 27
0 1 2 6 9 7 8 13 10 357 337 324 316 249 203 225 349 5 9 6 357 349 351 349 338 342 351 347 357 71 27 346 358 343 115 80 58 72 88 69 45 63 111 137 150 128 122 123 121 114 100 89 88 73 69 107 114 104 99 84 78 86 87 102 109 119 114 112 122 115 93 42 40 105 144 154 140 153 161 156 164 163 167 164 163 163 110 10
359 0 1 5 9 8 14 17 9 356 340 338 332 192 177 157 2 8 6 356 344 337 336 334 333 338 342 344 10 52 353 345 354 243 130 99 81 82 88 78 66 86 106 110 125 127 118 125 125 111 115 117 104 78 93 116 109 100 97 84 67 74 78 81 94 130 120 137 140 109 61 10 358 130 144 144 146 169 169 162 170 173 184 186 195 196 194 299
358 360 1 4 7 9 16 18 12 5 356 2 52 155 144 52 8 4 355 347 339 330 326 329 333 336 337 342 18 345 333 351 18 208 160 118 104 99 97 88 83 90 97 103 118 123 112 132 126 117 124 118 101 118 123 115 102 98 86 83 83 55 42 50 92 136 122 152 164 69 21 299 306 228 163 151 161 173 174 176 179 183 195 199 209 212 218 247
357 0 1 4 7 9 16 18 16 15 13 25 86 138 106 20 354 349 341 337 332 329 327 330 335 340 338 340 355 323 325 355 359 215 200 139 115 108 99 84 84 96 104 104 111 116 114 129 123 116 115 104 116 123 114 86 81 93 54 50 80 69 305 305 137 148 113 175 198 35 114 230 285 239 190 171 178 180 182 189 190 195 202 207 216 217 224 232
356 359 1 4 5 7 16 18 15 15 19 31 71 127 65 347 335 336 334 328 325 328 325 330 339 345 345 356 23 360 8 11 339 232 194 145 111 109 108 95 94 105 111 110 113 121 127 128 115 104 99 111 120 113 65 20 30 50 66 356 1 80 240 303 189 174 117 194 220 37 112 240 277 230 201 184 193 196 196 201 200 203 205 211 220 219 225 232
355 358 2 3 4 7 16 19 14 14 20 27 39 41 344 326 325 327 324 319 317 314 316 330 339 343 344 12 59 26 16 3 336 224 204 178 122 122 119 102 103 112 116 116 121 127 129 114 98 94 104 114 114 91 60 38 3 3 87 158 330 84 135 315 199 201 168 142 205 51 137 228 268 220 200 194 205 207 210 212 209 213 214 216 224 225 227 234
354 357 2 3 4 7 16 21 13 14 22 20 13 8 346 319 319 324 320 312 302 299 307 314 317 328 341 81 77 2 358 355 331 213 210 198 164 141 130 112 112 120 124 124 126 123 114 101 101 100 90 85 73 88 72 22 324 320 42 103 194 122 144 255 252 217 162 121 167 92 139 230 273 216 196 200 210 212 218 220 220 223 224 225 229 229 229 236
353 355 1 4 3 5 17 23 12 12 19 16 1 345 336 324 321 320 321 308 282 280 292 300 312 330 334 262 306 329 344 348 321 205 215 211 181 158 146 127 122 130 133 133 130 102 102 91 102 100 38 28 360 80 81 238 193 205 115 107 138 112 148 212 254 210 155 118 169 131 290 258 287 255 203 204 208 214 223 227 231 235 233 232 231 229 229 235
352 352 360 6 3 4 16 22 15 9 9 16 13 332 297 311 324 314 344 318 281 269 275 306 329 329 258 289 309 324 338 346 311 200 216 221 187 181 168 119 134 156 146 135 55 62 104 80 71 84 75 237 237 158 168 202 166 156 159 134 137 148 238 231 255 222 160 120 176 181 226 254 267 264 216 207 207 216 228 233 237 241 239 234 231 230 230 237
350 351 356 6 5 2 12 23 21 13 9 15 10 335 332 351 2 350 343 358 109 336 280 300 312 282 277 294 311 325 335 347 303 211 218 225 201 200 184 95 354 18 85 100 346 26 81 75 76 187 210 220 228 191 173 169 133 129 123 106 134 144 279 244 260 235 156 127 251 204 212 254 247 244 227 212 207 218 228 234 238 239 239 234 231 230 232 240
348 349 352 5 8 1 8 26 27 23 19 16 13 63 64 32 34 342 336 345 72 323 294 298 298 282 284 293 306 317 324 334 294 238 228 234 218 219 242 52 40 33 355 331 154 4 57 76 346 240 216 200 178 129 120 105 95 103 109 101 110 132 270 262 231 192 153 131 282 198 198 258 250 243 236 208 201 221 224 225 233 235 238 236 234 234 235 238
346 347 349 360 10 2 3 24 31 32 24 17 36 70 65 43 37 354 338 311 301 305 289 292 287 281 284 290 302 309 307 297 276 255 241 237 224 228 247 70 78 110 321 1 53 9 35 38 279 249 159 105 72 75 87 83 82 82 93 103 103 240 252 309 11 119 123 63 283 208 201 263 264 245 231 207 207 225 225 225 233 235 236 236 236 237 236 233
343 345 346 354 9 3 359 23 24 20 16 25 48 60 53 36 21 354 340 291 300 308 290 288 286 284 287 295 307 308 291 263 264 260 243 231 220 228 226 98 91 118 7 34 117 79 42 277 255 164 119 94 61 49 80 75 72 90 107 115 199 253 143 305 335 59 76 67 205 158 204 286 287 267 242 219 218 230 234 234 240 241 242 243 243 244 239 232
340 344 344 349 5 5 356 31 31 13 24 42 50 50 39 24 7 342 330 286 300 309 294 285 285 280 282 295 307 307 289 253 257 264 236 221 210 216 236 134 93 73 14 71 122 121 210 245 162 114 90 98 95 52 88 86 41 7 156 137 177 200 167 194 193 113 23 4 103 92 20 313 310 290 269 238 222 233 241 239 242 244 245 247 249 247 243 238
338 341 343 347 358 5 357 81 50 31 42 47 38 35 29 3 345 335 334 12 302 304 303 283 289 281 280 293 290 290 292 253 262 268 241 221 206 186 20 124 87 69 180 153 104 97 266 222 150 107 58 82 104 130 166 127 55 331 214 178 180 167 145 133 118 90 31 353 331 72 41 300 317 298 262 266 233 238 239 231 236 241 240 241 242 242 241 238
336 338 343 347 350 2 26 96 26 28 74 46 20 18 11 340 336 325 339 53 327 301 326 293 312 292 276 295 274 265 332 297 282 268 233 218 210 203 26 51 37 85 169 170 107 109 149 98 115 107 80 65 58 307 218 135 93 9 209 167 153 131 125 130 123 97 76 283 293 68 106 269 318 306 269 285 267 257 260 239 238 239 235 235 238 240 237 234
335 336 340 346 348 356 18 12 360 14 52 11 6 4 342 326 332 316 356 50 35 293 322 244 225 302 270 305 251 208 346 303 307 285 212 209 212 206 227 290 358 110 166 125 58 229 171 75 59 74 77 62 42 298 227 131 99 334 266 119 115 119 130 142 124 101 157 218 331 25 101 180 307 282 285 309 265 275 281 260 248 238 233 235 237 237 235 234
331 332 334 341 346 350 360 353 350 10 6 352 357 346 325 320 330 345 74 74 295 291 327 248 246 266 272 287 226 209 265 279 339 315 225 213 214 190 199 255 201 189 144 105 87 264 193 110 128 112 78 67 227 237 194 131 79 300 230 99 104 113 117 122 106 90 37 55 343 323 42 75 279 278 315 358 279 285 273 255 248 233 231 233 235 236 234 233
328 329 329 334 339 340 346 344 346 356 348 350 1 337 312 269 31 56 83 92 296 300 336 283 264 259 272 296 224 230 264 255 102 276 236 212 219 206 50 285 161 132 47 94 154 240 246 210 187 142 112 226 232 237 178 132 91 174 131 82 74 74 76 81 87 92 40 42 282 275 43 85 278 286 326 10 293 266 259 255 250 234 231 231 232 233 231 230
325 325 324 327 329 324 336 345 340 343 343 353 2 355 132 125 90 69 69 197 285 296 291 286 275 277 307 19 299 276 254 246 256 266 232 179 215 216 157 60 121 106 19 31 102 236 316 292 176 134 140 197 156 95 114 106 111 138 104 60 54 39 48 52 54 86 61 359 268 253 138 106 305 286 267 228 224 226 237 264 263 234 229 229 230 231 228 227
322 321 320 323 322 316 327 340 335 340 345 355 2 102 134 100 72 86 135 232 245 311 330 306 283 350 40 75 289 303 345 277 268 194 196 135 147 189 126 74 75 65 13 10 36 323 340 19 200 285 214 148 100 67 44 42 72 94 68 61 58 352 17 27 359 40 66 308 270 261 144 115 212 267 246 237 247 231 219 247 251 223 222 224 226 228 226 225
319 314 316 318 310 306 316 325 336 346 343 352 13 141 137 68 27 123 239 301 298 284 340 298 281 3 22 17 279 267 291 286 283 139 164 156 121 174 161 180 172 30 342 299 8 340 330 288 304 317 232 149 91 62 26 17 38 65 68 71 63 348 10 20 337 4 37 255 272 305 66 118 229 247 250 254 258 247 229 235 237 228 224 224 224 225 223 221
316 311 314 312 302 297 299 310 329 344 334 340 18 133 97 77 211 216 279 327 242 251 279 285 299 336 56 45 320 286 259 246 271 26 133 103 76 254 280 200 154 103 312 231 28 5 328 308 325 359 267 188 118 110 31 340 36 97 120 98 74 51 35 353 303 342 320 266 280 317 319 318 286 267 237 236 258 270 262 256 250 241 235 232 228 223 220 218
316 313 312 309 300 284 282 300 325 342 332 330 96 97 83 101 212 194 276 270 255 288 315 327 320 348 59 96 273 270 259 276 279 76 37 36 40 288 303 284 138 99 103 128 163 117 57 317 288 180 230 200 133 142 163 146 110 154 159 125 118 145 107 332 262 241 299 287 298 314 299 186 273 275 219 236 276 298 293 278 259 244 241 237 227 217 214 215
319 317 311 315 309 271 274 304 335 343 330 325 76 77 114 202 230 163 228 258 295 311 313 351 49 38 16 330 302 343 126 280 321 65 35 76 171 224 218 212 204 117 113 138 238 121 95 258 256 257 175 122 121 172 139 107 63 282 160 97 62 167 135 105 166 182 217 307 303 290 250 212 230 269 281 290 298 322 335 307 253 229 228 221 212 210 210 213
321 321 316 325 335 267 286 360 23 353 322 66 74 74 174 209 199 167 199 274 335 311 338 360 49 60 3 325 331 355 39 280 346 37 336 292 206 224 222 212 198 163 141 151 205 152 90 271 285 324 28 84 129 151 123 87 102 270 100 135 241 155 117 112 141 340 70 42 306 300 293 295 319 310 311 339 334 337 3 2 232 207 208 204 205 207 208 211
322 333 360 34 69 88 86 35 29 3 328 81 99 180 221 220 181 176 201 336 303 339 65 40 21 69 356 331 317 313 339 29 6 17 270 314 270 214 256 268 199 187 181 152 187 203 138 264 298 350 53 320 118 109 68 45 101 66 308 222 213 90 81 103 101 2 36 35 311 339 308 299 351 349 319 346 341 316 340 11 53 190 196 201 205 206 208 211
331 360 52 84 96 89 74 12 13 17 26 79 103 238 229 197 196 201 268 321 286 25 83 123 243 126 168 154 293 297 336 28 352 12 141 334 296 207 262 281 198 199 208 164 123 214 121 121 298 311 143 289 39 88 43 3 34 60 168 166 101 75 6 8 66 34 21 5 310 316 309 279 211 239 301 325 301 283 303 319 201 198 201 205 206 204 205 208
330 340 26 117 126 95 54 6 12 49 64 94 178 259 233 233 257 249 275 309 167 104 92 195 205 75 155 170 237 293 340 45 18 63 109 54 290 247 270 258 241 33 198 167 138 90 99 119 271 287 230 297 2 58 248 310 10 38 95 83 23 124 157 321 73 139 107 35 301 321 340 301 232 218 232 259 255 250 258 252 230 221 216 212 208 204 204 207
326 342 211 169 158 104 23 352 9 60 76 157 198 224 263 271 285 282 285 293 214 170 173 199 165 90 214 205 215 275 360 90 139 120 101 139 266 285 285 236 302 357 116 117 108 96 63 101 198 291 324 14 328 231 199 190 140 65 69 325 325 79 130 72 15 97 113 130 180 341 330 281 255 211 198 239 254 231 213 222 232 230 226 222 216 210 208 208
324 355 217 186 171 90 344 349 14 66 95 170 206 213 286 301 297 299 299 272 233 235 208 181 162 165 202 174 207 246 348 54 90 75 90 152 142 259 297 323 287 262 95 76 77 125 112 113 159 276 353 189 238 249 203 185 169 148 162 200 186 139 119 86 331 311 66 115 162 143 294 275 262 208 202 234 253 245 232 225 233 239 234 228 223 217 214 212
241 270 202 190 189 215 336 7 17 69 126 176 225 238 283 302 288 295 309 270 225 240 205 178 173 168 183 171 211 232 115 57 21 52 129 228 177 192 305 323 284 230 97 101 157 182 154 101 100 183 227 219 250 270 190 169 147 128 134 161 142 127 120 119 259 274 79 70 135 117 109 272 266 229 214 245 264 272 263 244 241 250 247 236 226 219 217 216
229 231 205 196 209 218 190 358 338 353 220 236 274 263 269 286 286 303 316 310 264 261 129 180 183 139 196 207 184 192 117 92 360 360 180 261 228 215 332 340 293 185 70 117 186 135 123 78 69 317 300 301 300 326 25 58 84 91 38 83 119 122 133 145 177 188 144 158 155 92 307 271 277 299 262 265 275 278 271 254 247 252 254 242 227 220 216 213
255 264 250 218 220 218 191 186 225 268 279 305 349 309 278 266 251 269 280 284 284 204 105 195 191 157 190 149 106 107 45 109 229 287 197 214 250 296 1 7 21 102 62 146 174 142 140 63 84 75 1 349 343 348 356 359 37 82 312 319 129 112 101 118 145 82 42 215 154 126 254 259 274 311 311 283 285 279 266 257 251 251 253 244 226 218 215 211
275 272 265 237 217 212 207 186 162 171 253 324 348 299 287 274 250 247 248 263 269 213 178 296 180 144 123 64 68 29 19 97 171 291 351 249 275 320 4 13 26 42 51 115 137 136 134 115 117 117 124 172 235 278 260 275 346 322 300 336 50 114 117 136 94 61 328 241 150 158 229 267 294 313 319 317 323 304 285 272 258 250 250 245 229 218 213 210
262 252 267 270 196 197 203 195 155 136 178 183 306 288 234 227 275 271 247 257 275 240 218 275 194 114 54 55 67 17 357 21 78 61 20 302 281 309 347 7 23 25 32 76 74 93 105 79 120 138 158 183 190 217 224 187 114 311 307 350 12 117 119 102 90 90 210 179 193 222 212 277 303 306 312 313 318 311 295 283 269 258 251 242 231 221 214 210
224 242 211 105 148 186 180 187 173 150 158 166 203 272 223 223 298 317 233 233 287 272 197 18 53 129 151 107 101 72 341 358 18 43 360 298 267 297 332 5 25 18 17 50 44 77 104 56 111 148 177 204 191 198 219 119 155 218 240 305 327 142 117 106 153 219 172 122 289 257 190 208 284 290 298 299 303 295 283 285 286 280 264 243 228 218 210 206
210 244 199 167 196 201 175 205 192 153 146 162 198 267 260 249 300 292 236 276 327 338 107 17 356 310 193 160 125 130 110 20 3 338 304 317 305 325 341 359 24 17 18 26 28 73 113 100 180 163 293 269 219 225 40 108 227 217 210 246 262 165 158 177 222 210 159 167 248 236 177 206 263 283 287 286 288 282 281 294 302 297 276 244 223 213 207 204
213 240 212 190 205 188 168 194 169 148 181 199 220 249 203 213 244 237 222 348 340 337 90 139 298 293 212 159 125 135 168 149 128 277 255 317 337 349 2 335 350 12 20 28 17 53 109 135 222 117 355 311 319 337 15 43 340 303 258 244 243 234 217 219 236 210 183 218 238 206 205 249 257 256 267 288 299 290 286 298 305 302 274 237 220 214 210 208
213 232 213 190 209 204 175 186 140 138 213 213 216 249 204 192 231 247 207 141 210 305 27 155 238 272 219 143 122 151 196 176 164 200 193 156 16 218 31 240 261 354 12 29 356 10 77 157 243 91 69 309 329 359 13 14 293 263 284 278 268 288 274 233 235 194 195 258 269 225 293 282 266 241 264 297 311 305 296 304 314 311 276 236 223 220 218 216
208 215 197 171 200 193 179 180 136 131 160 209 205 241 223 199 215 225 218 180 178 229 248 179 187 222 48 94 113 161 192 167 152 166 167 152 157 200 212 201 189 341 360 18 339 357 56 98 49 71 62 288 318 8 350 346 19 304 308 300 259 244 237 227 230 188 186 248 300 348 328 272 261 283 302 310 324 330 318 322 334 327 287 245 235 232 229 226
209 209 199 177 205 214 176 141 106 134 203 211 200 224 233 230 236 163 135 256 188 173 236 184 167 116 64 99 138 160 157 140 128 141 162 187 273 251 262 253 189 191 360 67 12 355 86 108 121 89 92 261 291 353 353 9 24 335 291 242 196 205 264 291 292 245 202 175 162 261 248 243 266 334 330 316 328 332 322 329 343 332 307 270 257 250 244 240